Location: Cointrin
(46.2167°N, 6.1167°E)
Time: 06:14:36
(UTC+00:00)

Cosmos 2322 Rocket - Pass Details

Date: 08 February 2023
Orbit: 831 x 851 km, 71.0° (Epoch: 25 March)

Event Time Altitude Azimuth Distance (km) Brightness Sun altitude
Rises 18:44:28 0° 252° (WSW) 3,371 6.7 -20.1°
Reaches altitude 10° 18:47:34 10° 269° (W) 2,442 5.8 -20.6°
Maximum altitude 18:51:36 20° 316° (NW) 1,843 4.5 -21.3°
Drops below altitude 10° 18:55:41 10° 3° (N) 2,456 4.6 -22.0°
Enters shadow 18:58:36 - 19° (NNE) 3,323 5.1 -22.6°
